AO-07 1 07530U 74089B 14299.17494338 -.00000004 00000-0 24866-3 0 1049 2 07530 101.4898 276.7686 0012254 040.6143 024.1809 12.53608102827933 FO-29 1 24278U 96046B 14298.82604348 .00000058 00000-0 97219-4 0 5022 2 24278 098.5164 294.6608 0349649 318.7966 160.2538 13.53033392898336 SO-33 1 25509U 98061B 14298.79221262 .00001084 00000-0 19980-3 0 8688 2 25509 031.4322 140.2994 0349179 178.7729 278.5942 14.29704829835853 RS-22 1 27939U 03042A 14299.49190282 .00001689 00000-0 32005-3 0 9851 2 27939 097.8217 107.2176 0014068 054.7592 009.7357 14.65442472591950 HO-68 1 36122U 09072B 14299.15964447 -.00000089 00000-0 -12045-3 0 655 2 36122 100.2327 346.9527 0006894 298.1882 131.4460 13.16320347233661 AO-73 1 39444U 13066AE 14298.70401733 .00005804 00000-0 77043-3 0 2926 2 39444 097.7621 004.8630 0061699 178.0948 182.0511 14.78835094 48758 EO-79 1 40025U 14033R 14299.24038714 .00003947 00000-0 46064-3 0 3783 2 40025 097.9690 194.0902 0011821 228.3278 131.6944 14.85705617 19049 UO-11 1 14781U 84021B 14299.11006314 .00001446 00000-0 18943-3 0 6469 2 14781 097.8364 356.5853 0010118 113.6316 246.5960 14.81835123647350 AO-16 1 20439U 90005D 14298.79178917 .00000418 00000-0 17024-3 0 1571 2 20439 098.5175 233.7245 0011912 130.4922 259.2724 14.32410516293187 LO-19 1 20442U 90005G 14298.82359625 .00000408 00000-0 16582-3 0 921 2 20442 098.4886 234.0174 0012959 120.2512 239.9957 14.32609693293389 AO-27 1 22825U 93061C 14299.41866556 .00000318 00000-0 14115-3 0 8057 2 22825 098.6773 244.8855 0007283 272.3621 200.3630 14.29767660 99538 IO-26 1 22826U 93061D 14299.08449416 .00000357 00000-0 15523-3 0 5620 2 22826 098.6715 244.7519 0007868 264.8637 095.1648 14.30072601 99628 GO-32 1 25397U 98043D 14298.82699012 .00000218 00000-0 11466-3 0 4831 2 25397 098.4869 252.0485 0000196 350.2004 039.7255 14.23474172846451 NO-44 1 26931U 01043C 14298.82153617 .00000438 00000-0 20093-3 0 7378 2 26931 067.0529 061.5774 0007574 273.7831 086.2404 14.30174474682281 SO-50 1 27607U 02058C 14299.30993339 .00002262 00000-0 35278-3 0 5560 2 27607 064.5563 192.5666 0063121 336.5505 023.2720 14.74053823636804 CO-55 1 27844U 03031E 14298.97274527 .00000494 00000-0 24541-3 0 558 2 27844 098.6989 305.8676 0008754 254.7432 135.2083 14.21592932587169 CO-57 1 27848U 03031J 14299.29528019 .00000434 00000-0 21918-3 0 9992 2 27848 098.7085 305.9682 0008613 261.3300 163.8995 14.21269360587122 AO-51 1 28375U 04025K 14298.84803174 .00000782 00000-0 24488-3 0 9777 2 28375 098.2651 241.3959 0081972 318.0828 041.4105 14.41470846542722 CP3 1 31129U 07012N 14298.78388955 .00003640 00000-0 80344-3 0 8830 2 31129 097.9506 270.2720 0096964 324.9179 152.6729 14.55021794399026 CO-65 1 32785U 08021C 14298.77556986 .00003703 00000-0 43163-3 0 997 2 32785 097.6829 345.6962 0015119 117.6734 307.1654 14.85732938351419 PRISM 1 33493U 09002B 14299.46351529 .00009948 00000-0 10218-2 0 4307 2 33493 098.2547 120.8347 0017772 019.0008 065.1729 14.90473537311723 SOHLA-1 1 33496U 09002E 14298.81813411 .00001391 00000-0 23524-3 0 4984 2 33496 098.1856 060.1980 0006613 177.8414 335.1344 14.70964063308718 TISAT-1 1 36799U 10035E 14299.26896731 .00007775 00000-0 88539-3 0 6753 2 36799 098.0187 032.3000 0012515 251.6856 168.6818 14.86409691232186 STUDSAT 1 36801U 10035G 14298.81103924 .00034983 00000-0 28028-2 0 9178 2 36801 098.0440 042.6745 0006644 215.8117 304.6709 15.00024124232687 ALMASAT-1 1 38078U 12006B 14299.48137910 .00066426 38383-5 12955-2 0 1948 2 38078 069.4658 100.9679 0566888 216.9946 213.0369 14.57327421140719 XATCOBEO 1 38082U 12006F 14243.34478676 .13583328 43697-5 37939-3 0 5637 2 38082 069.3815 097.0364 0033293 225.1799 135.4582 16.41261006136239 CUBEBUG-1 1 39153U 13018D 14299.16496234 .00003268 00000-0 45791-3 0 5987 2 39153 098.0349 019.1750 0016544 289.7011 070.2414 14.78118431 80898 ESTCUBE-1 1 39161U 13021C 14299.44666381 .00003072 00000-0 51645-3 0 6050 2 39161 098.0907 019.3470 0009341 345.7614 014.3328 14.70315906 78873 DUCHIFAT-1 1 40021U 14033M 14299.29390987 .00005573 00000-0 64330-3 0 3825 2 40021 097.9680 194.2028 0012308 226.6218 133.3998 14.85982444 19044 NANOSATCBR1 1 40024U 14033Q 14299.23640838 .00005001 00000-0 58031-3 0 3743 2 40024 097.9655 194.0976 0011235 226.0368 133.9942 14.85821010 19032 DTUSAT-2 1 40030U 14033W 14299.40713765 .00003705 00000-0 43682-3 0 3711 2 40030 097.9648 194.1672 0011269 216.6603 143.3845 14.85327187 19065 ANTELSAT 1 40034U 14033AA 14299.24193441 .00002714 00000-0 43186-3 0 3808 2 40034 097.9655 191.2373 0061561 147.5753 212.9261 14.71569916 18877 MET-2/21 1 22782U 93055A 14298.96281968 .00000143 00000-0 11563-3 0 2097 2 22782 082.5502 069.5355 0021243 256.7044 242.9816 13.83748156 68202 OKEAN-4 1 23317U 94066A 14298.82959941 .00003019 00000-0 34303-3 0 6910 2 23317 082.5364 305.4232 0021041 031.3498 128.1767 14.85826942 82507 NOAA-14 1 23455U 94089A 14299.42179103 .00000041 00000-0 44320-4 0 9544 2 23455 098.7713 020.4840 0009724 032.5670 106.7112 14.13995521 22494 NOAA-15 1 25338U 98030A 14299.46486794 .00000307 00000-0 14892-3 0 3940 2 25338 098.7620 293.1305 0011675 124.9213 037.6169 14.25491791855542 RESURS 1 25394U 98043A 14299.01641002 .00000145 00000-0 80510-4 0 7936 2 25394 098.4319 257.9899 0000905 182.1932 218.7680 14.24407705846945 FENGYUN1 1 25730U 99025A 14299.43425853 .00004009 00000-0 21955-2 0 2823 2 25730 098.9230 259.7985 0023265 096.0688 021.9171 14.12302314796048 OKEAN-0 1 25860U 99039A 14298.85740698 .00001869 00000-0 28220-3 0 4000 2 25860 098.0614 262.0818 0001467 083.2264 299.0711 14.75490429821422 NOAA-16 1 26536U 00055A 14299.43198260 .00000178 00000-0 11944-3 0 8920 2 26536 098.9755 000.2652 0010989 168.7742 191.3676 14.13046718726647 NOAA-17 1 27453U 02032A 14299.44740456 .00000338 00000-0 16219-3 0 7812 2 27453 098.3226 292.3004 0012626 145.0718 215.1293 14.24799257641370 NOAA-18 1 28654U 05018A 14299.48131771 .00000172 00000-0 11935-3 0 3060 2 28654 099.1638 281.7140 0013409 254.4767 214.6413 14.12085500486092 NOAA-19 1 33591U 09005A 14299.47360563 .00000418 00000-0 25363-3 0 4387 2 33591 098.9594 244.1990 0015049 108.3138 029.3988 14.11788920294510 HUBBLE 1 20580U 90037B 14299.17896324 .00005074 00000-0 32780-3 0 1439 2 20580 028.4709 255.7351 0002929 246.4785 240.5179 15.06006882144488 ISS 1 25544U 98067A 14299.52559916 .00018781 00000-0 32583-3 0 3068 2 25544 051.6452 168.5399 0002517 306.8314 123.9571 15.50895423911704 CO-58 1 28895U 05043F 14298.52207623 .00002108 00000-0 42734-3 0 9078 2 28895 097.8252 133.5891 0016374 322.4143 037.5914 14.62124568479296 FALCON 1 30776U 07006E 14298.69061726 .00015579 00000-0 74334-3 0 9897 2 30776 035.4296 024.7838 0001448 018.6966 138.8992 15.18290509420566 MAST 1 31126U 07012K 14299.46191528 .00001839 00000-0 41006-3 0 1889 2 31126 097.9307 273.6290 0090407 305.3354 171.2510 14.55515966399489 CAPE1 1 31130U 07012P 14298.63768126 .00003427 00000-0 76092-3 0 1930 2 31130 097.9520 269.6673 0097605 326.9189 032.5927 14.54748847398770 COMPASS 1 32787U 08021E 14299.14197564 .00006583 00000-0 70954-3 0 834 2 32787 097.6854 348.8661 0015138 107.7936 252.4935 14.88666808351661 AAUSAT2 1 32788U 08021F 14299.21540683 .00007408 00000-0 78221-3 0 716 2 32788 097.6866 350.0901 0014634 105.8168 254.4664 14.89460248351744 DO-64 1 32789U 08021G 14299.14812631 .00012648 00000-0 11572-2 0 1150 2 32789 097.7064 357.8532 0012891 090.0932 322.5098 14.95048537352051 CO-66 1 32791U 08021J 14298.68348784 .00005866 00000-0 65649-3 0 646 2 32791 097.6853 346.9025 0015842 113.1749 247.1138 14.87168478351444 RS-30 1 32953U 08025A 14299.50718654 .00000046 00000-0 25825-3 0 4134 2 32953 082.4993 119.5667 0018492 228.6510 144.9521 12.43051903291570 METEOR-M 1 35865U 09049A 14299.18626300 .00000157 00000-0 90272-4 0 213 2 35865 098.5349 342.5286 0003513 086.4156 314.6572 14.21942082264956 RS-38 1 35869U 09049E 14299.19601730 .00000088 00000-0 58866-4 0 9279 2 35869 098.5270 342.2766 0005611 081.1389 324.8345 14.22236777264997 JUGNU 1 37839U 11058B 14298.80841455 .00000663 00000-0 21232-3 0 7226 2 37839 019.9601 183.2544 0018787 344.3573 080.8416 14.12356867157042 SRMSAT 1 37841U 11058D 14299.14415088 .00000495 00000-0 12809-3 0 7252 2 37841 019.9708 203.1757 0011812 282.2805 222.1654 14.10389905156873 RAX-2 1 37853U 11061D 14299.14152622 .00011082 00000-0 73256-3 0 9452 2 37853 101.7032 031.3456 0210801 037.4504 026.8094 14.91271915162164 AUBIESAT 1 37854U 11061E 14298.93622174 .00011683 00000-0 74660-3 0 9449 2 37854 101.7081 033.3840 0207904 034.4244 018.9216 14.92789352162209 HRBE 1 37855U 11061F 14299.31519077 .00012829 00000-0 82981-3 0 9640 2 37855 101.7073 033.0929 0210392 035.0185 326.4649 14.91992610162212 RS-39 1 38051U 11062C 14288.65876392 .70201582 12497-4 27925-2 0 413 2 38051 051.5964 324.1908 0006422 269.6897 186.8903 16.43533377153081 E-STAR 1 38079U 12006C 14299.24277459 .00277978 21480-4 21204-2 0 408 2 38079 069.4428 000.4410 0256294 163.7389 197.2270 15.39472200143375 GOLIAT 1 38085U 12006J 14299.37535474 .00257316 17890-4 22657-2 0 4886 2 38085 069.4438 010.8674 0290736 168.5952 192.2007 15.29956425143107 HORYU-2 1 38340U 12025D 14299.42122494 .00004743 00000-0 74523-3 0 51 2 38340 098.2820 258.9851 0013702 116.4692 243.7923 14.73007894131108 RS-40 1 38735U 12041C 14299.12695930 .00000021 00000-0 79195-4 0 7226 2 38735 082.4786 205.8981 0016806 333.5861 026.4360 12.42562449101839 PROITERES 1 38756U 12047B 14299.45140942 .00001801 00000-0 27408-3 0 3489 2 38756 098.2261 029.8907 0011556 328.7599 031.2921 14.75201465114521 BEESAT-3 1 39134U 13015E 14298.47706918 .00015897 00000-0 10524-2 0 7493 2 39134 064.8755 085.7371 0036075 285.7520 073.9623 15.06956631 83270 BEESAT-2 1 39136U 13015G 14298.86697214 .00014708 00000-0 99669-3 0 7337 2 39136 064.8754 085.4269 0036314 285.8761 073.8358 15.06127599 83310 LO-75 1 39382U 13064C 14295.69194059 .07301741 00000-0 36367-2 0 4875 2 39382 040.4713 030.2705 0002289 341.7175 018.4586 16.19795749470823 ZACUBE-1 1 39417U 13066B 14299.14638555 .00003552 00000-0 47742-3 0 4494 2 39417 097.7617 005.2071 0062021 176.9530 183.2072 14.78549912 50042 TRITON-1 1 39427U 13066M 14298.72982246 .00003930 00000-0 65945-3 0 3019 2 39427 097.7494 357.9604 0117516 194.3035 165.4833 14.65737130 49513 DELFIN3XT 1 39428U 13066N 14298.42163401 .00005958 00000-0 10213-2 0 3043 2 39428 097.7490 356.5098 0127392 198.4886 161.1667 14.63858875 49385 GOMX-1 1 39430U 13066Q 14299.20503293 .00003697 00000-0 70325-3 0 9315 2 39430 097.7430 353.9011 0155498 205.6907 153.6510 14.57167927 49298 MO-76 1 39436U 13066W 14299.12522057 .00032875 00000-0 30840-2 0 3851 2 39436 097.7680 010.9030 0024936 174.6593 185.4897 14.93666568 50399 LO-74 1 39440U 13066AA 14299.14940777 .00003739 00000-0 55202-3 0 2969 2 39440 097.7575 002.4951 0083836 182.4770 177.6035 14.73460295 49867 PUCPSAT-1 1 39442U 13066AC 14299.10543861 .00005576 00000-0 62547-3 0 2950 2 39442 097.7676 009.4084 0034587 173.1396 187.0301 14.86758585 49075 SHINAISAT 1 39572U 14009A 14299.42154480 .00296715 40014-4 86503-3 0 3603 2 39572 065.0002 302.2218 0017723 288.1094 071.8140 15.92335212 37791 TEIKYOSAT 1 39576U 14009E 14297.85867254 .09345816 76764-5 25176-3 0 4374 2 39576 064.9818 300.5833 0008491 317.3597 044.3862 16.45008906 37698 CO-77 1 39577U 14009F 14244.78324653 .10543803 76292-5 32273-3 0 3795 2 39577 064.9920 123.7668 0014904 269.7208 091.1897 16.43552757 29380 SPROUT 1 39770U 14029E 14298.51436888 .00002962 00000-0 37140-3 0 1729 2 39770 097.8733 033.6940 0008655 243.9825 116.0500 14.82920808 22848 POPSAT-HIP1 1 40028U 14033U 14299.45644390 .00003981 00000-0 46633-3 0 3951 2 40028 097.9709 194.3342 0013226 223.1258 136.8919 14.85542946 19061 EO-80 1 40032U 14033Y 14299.27427751 .00003654 00000-0 43120-3 0 3838 2 40032 097.9697 194.0443 0011281 219.9726 140.0685 14.85301595 19041 VELOX-1 1 40057U 14034E 14299.46691021 .00003686 00000-0 56312-3 0 3821 2 40057 098.2406 008.6764 0010397 265.0151 094.9892 14.74397277 17424 DAURIA DX 1 1 40071U 14037C 14299.42072981 .00001745 00000-0 23979-3 0 3540 2 40071 098.3888 355.9335 0007274 270.2090 089.8293 14.79706930 16216 UKUBE-1 1 40074U 14037F 14299.41933868 .00003643 00000-0 48012-3 0 3568 2 40074 098.3902 356.1100 0003466 282.9821 077.1016 14.80775229 16223 CHASQUI-1 1 40117U 98067ET 14299.11531178 .00123836 00000-0 14821-2 0 2269 2 40117 051.6455 168.6759 0006548 207.8706 284.6252 15.60041921 10634 /EX
